CST,Max TemperatureF,Mean TemperatureF,Min TemperatureF,Max Dew PointF,MeanDew PointF,Min DewpointF,Max Humidity, Mean Humidity, Min Humidity, Max Sea Level PressureIn, Mean Sea Level PressureIn, Min Sea Level PressureIn, Max VisibilityMiles, Mean VisibilityMiles, Min VisibilityMiles, Max Wind SpeedMPH, Mean Wind SpeedMPH, Max Gust SpeedMPH,PrecipitationIn, CloudCover, Events, WindDirDegrees
2013-12-1,64,54,43,50,45,37,92,75,59,30.29,30.17,30.03,10,10,10,7,4,,0.00,2,,8
2013-12-2,69,58,47,52,48,45,94,73,41,30.03,29.90,29.82,10,9,2,8,3,,0.00,2,,206
2013-12-3,74,62,51,64,58,52,100,94,66,29.91,29.87,29.81,10,5,0,16,5,21,0.47,4,Fog-Rain,168
2013-12-4,77,68,59,72,65,60,100,97,73,30.04,29.97,29.91,10,5,0,13,4,,0.63,6,Fog-Rain,156
2013-12-5,81,74,68,75,70,68,100,96,64,30.10,30.04,29.99,10,8,0,20,6,25,0.43,6,Fog-Rain,186
2013-12-6,80,74,69,72,70,68,100,90,69,30.11,30.07,30.03,10,10,9,21,10,25,0.00,6,Rain,181
2013-12-7,71,60,49,72,54,46,100,94,82,30.28,30.19,30.10,10,10,5,15,8,17,0.03,8,Rain,337
2013-12-8,76,63,50,68,57,50,100,94,44,30.22,30.18,30.09,10,4,0,9,5,,0.00,5,Fog,89
2013-12-9,75,70,64,70,67,64,100,95,78,30.12,30.07,30.04,10,7,0,12,6,,0.47,6,Fog-Rain,215
2013-12-10,68,54,39,68,56,32,100,92,58,30.34,30.13,30.03,10,8,1,22,8,32,0.08,6,Rain,268
2013-12-11,62,48,34,44,38,30,82,68,51,30.40,30.34,30.30,10,10,10,10,7,,0.00,1,,27
2013-12-12,57,46,34,39,27,19,76,50,22,30.48,30.41,30.37,10,10,10,14,8,22,0.00,1,,355
2013-12-13,57,43,29,44,32,23,88,66,37,30.38,30.26,30.10,10,10,10,8,5,,0.00,1,,50
2013-12-14,70,59,48,68,62,45,100,94,86,30.08,29.90,29.81,10,8,0,16,7,26,0.52,5,Fog-Rain,216
2013-12-15,57,46,33,56,44,31,100,87,61,30.27,30.05,29.91,10,9,3,16,10,24,0.07,6,Rain,312
2013-12-16,59,45,31,37,33,29,93,73,33,30.33,30.28,30.24,10,10,9,8,5,,0.00,0,,331
2013-12-17,64,48,32,39,35,30,95,68,31,30.33,30.27,30.21,10,10,10,9,3,,0.00,0,,276
2013-12-18,61,50,36,37,34,28,89,64,28,30.39,30.31,30.26,10,10,10,8,5,,0.00,0,,6
2013-12-19,66,49,32,38,34,30,91,65,29,30.32,30.25,30.18,10,10,10,9,4,,0.00,0,,86
2013-12-20,72,55,38,62,52,35,100,83,67,30.21,30.15,30.09,10,10,9,9,3,,0.00,2,,101
2013-12-21,78,69,60,70,66,61,100,87,71,30.07,29.98,29.93,10,10,10,17,9,25,0.00,6,Rain,152
2013-12-22,80,68,57,73,68,57,100,90,70,30.08,29.99,29.93,10,9,0,21,12,33,1.17,6,Fog-Rain,198
2013-12-23,57,49,41,55,51,34,100,94,74,30.34,30.18,30.06,10,8,2,15,8,21,1.54,7,Rain,328
2013-12-24,52,42,32,32,27,24,87,63,35,30.46,30.39,30.33,10,10,10,15,9,21,0.00,0,,347
2013-12-25,53,40,28,41,33,23,80,70,55,30.41,30.34,30.27,10,10,10,10,6,,0.00,3,,38
2013-12-26,58,49,40,42,37,36,87,70,54,30.35,30.30,30.26,10,10,10,12,7,,0.00,5,,19
2013-12-27,60,51,42,39,36,31,76,61,39,30.40,30.34,30.31,10,10,10,13,8,,0.00,1,,34
2013-12-28,51,47,43,52,45,36,100,91,59,30.31,30.06,29.87,10,7,2,15,9,21,2.22,8,Rain,57
2013-12-29,52,46,39,52,47,39,100,96,82,30.11,29.99,29.83,10,8,1,12,6,,0.01,6,Rain,302
2013-12-30,57,46,35,49,39,36,100,93,60,30.27,30.15,30.10,10,4,0,6,2,,0.00,0,Fog,270
2013-12-31,49,46,44,45,34,3,89,64,17,30.40,30.34,30.28,10,10,10,10,6,,0.00,4,,356